Vorticity
6 6 7 6 6 5 8 1 -7 12 -6 31 8 4 5 3 9 11 9 8 7 4 2 4 5 4 5 7 8 9 8 7 5 4 4 4 6 7 8 7 8 8 7
4 4 4 5 6 6 6 12 10 9 5 4 0 3 4 7 5 -2 13 4 4 8 4 3 3 3 5 6 5 5 5 6 8 5 4 4 8 6 4 6 8 7 8
2 4 4 6 4 3 5 4 8 7 11 7 9 15 6 6 7 -7 0 15 0 3 5 3 2 2 3 2 1 3 2 5 5 4 3 3 3 6 10 9 7 11 12
4 6 5 4 4 3 3 2 2 4 8 4 6 6 3 11 10 6 11 25 2 8 22 11 5 2 1 1 2 1 1 3 0 1 6 4 5 4 5 5 5 5 15
8 7 6 5 4 5 6 7 3 3 3 2 6 4 4 6 5 4 3 6 13 12 13 10 20 2 1 1 4 1 3 4 4 2 3 4 3 3 4 5 7 8 13
4 7 4 4 6 6 5 5 8 8 6 7 3 0 2 4 8 11 4 2 -1 2 5 10 26 13 18 -4 -2 -1 3 3 0 2 4 5 1 3 4 2 1 5 15
6 5 4 6 5 2 5 7 7 1 7 6 2 4 1 1 2 -1 -1 2 0 2 -0 1 5 9 6 14 16 19 14 3 9 8 13 -6 10 5 2 5 1 -1 1
5 5 4 6 6 5 4 4 5 3 6 4 4 3 1 1 1 2 -1 2 1 1 4 3 1 4 4 4 -2 9 10 -1 10 30 6 10 10 10 4 1 4 2 2
5 5 4 5 6 6 6 5 4 4 3 1 2 5 5 -1 2 -0 -1 -0 -2 0 1 2 1 2 4 3 11 -5 7 12 4 9 7 5 2 8 7 3 3 3 1
6 7 7 4 4 3 2 3 6 6 6 8 7 6 7 9 8 5 5 2 -0 3 1 4 5 6 2 4 4 20 -9 1 9 5 12 10 5 -1 1 5 7 7 5
4 1 3 7 11 9 7 4 2 5 9 10 8 7 8 1 8 6 14 10 -2 5 -4 3 8 26 12 13 15 -6 4 12 38 29 10 -5 6 29 35 -16 29 5 11
14 14 18 17 18 21 18 14 13 13 12 8 7 6 11 2 -2 -1 21 -4 5 6 2 1 11 19 2 6 11 5 4 -9 17 -25 8 -4 8 6 -17 18 -7 47 3
22 16 8 10 9 10 8 6 6 4 6 11 11 11 4 4 12 11 -7 14 28 6 -5 6 5 8 3 7 11 -13 19 -11 0 54 5 1 8 -1 2 -2 4 11 11
10 3 0 3 7 9 6 5 9 5 4 5 -5 -0 4 -1 1 8 -2 -14 -11 -5 2 6 -2 5 17 5 3 4 -0 9 -1 4 -7 8 2 15 -18 -13 27 42 29
-2 4 6 3 3 4 5 18 55 58 63 46 29 16 9 -0 1 -2 0 0 1 8 6 2 6 2 9 14 7 10 17 -0 -2 28 2 8 -3 10 -4 8 -7 7 19
-1 -6 13 5 7 12 36 75 19 4 20 11 52 33 39 34 48 47 34 23 21 29 17 13 3 8 6 7 6 8 11 12 11 5 -14 16 -4 -7 -5 9 3 10 12
2 8 10 10 19 35 61 21 23 19 7 20 17 24 -4 6 32 21 16 18 13 15 10 17 18 8 6 8 4 16 23 8 23 5 9 5 10 13 2 15 -3 -3 -3
19 37 53 58 49 53 14 29 -10 5 5 -19 19 16 30 22 23 26 45 27 21 8 22 28 13 18 20 13 14 27 0 12 2 7 -12 -1 16 6 3 3 10 -9 -12
46 37 16 -2 19 8 16 25 -56 -44 12 15 18 7 20 12 -2 12 13 17 22 28 24 24 29 26 19 13 21 19 -1 4 20 4 29 -10 -2 -7 11 -4 10 20 4
6 8 16 18 11 8 20 25 24 84 18 33 14 40 -9 7 10 15 18 16 17 16 14 13 24 21 15 16 22 26 30 -2 18 22 3 15 2 3 1 -9 10 8 7
13 15 17 11 10 2 17 24 32 36 -34 2 6 16 12 2 12 13 28 27 29 18 11 27 17 30 16 10 17 11 25 31 5 10 13 -5 13 20 -2 10 1 15 4
14 19 24 22 16 19 19 9 22 14 16 4 11 -2 4 9 14 -5 15 20 29 8 42 17 6 23 42 20 18 2 5 17 -4 8 25 8 19 9 18 14 39 15 11
11 9 12 14 8 6 -0 28 24 21 21 14 -1 8 13 4 6 5 13 41 13 21 25 32 36 22 24 26 6 18 56 20 -0 -4 -8 14 13 3 20 26 11 8 6
8 21 40 20 10 15 9 14 16 12 1 12 19 3 10 3 12 18 26 9 29 13 19 14 22 34 17 14 6 18 22 24 5 -2 10 -0 15 34 42 19 5 14 15
29 38 40 18 2 -3 -6 17 4 0 23 28 22 32 10 3 -7 3 7 2 19 11 27 9 10 27 27 30 27 11 2 29 16 23 31 35 28 15 15 11 13 5 4
18 25 16 14 11 11 27 17 8 3 8 -4 31 20 13 13 16 -6 16 -2 25 8 0 8 24 26 28 30 29 20 12 10 30 26 29 11 18 5 8 9 15 18 12
Height
5846 5845 5843 5842 5840 5839 5839 5840 5839 5837 5836 5836 5837 5834 5832 5833 5835 5836 5836 5834 5833 5833 5834 5833 5831 5832 5832 5832 5832 5831 5831 5831 5830 5830 5830 5829 5829 5828 5827 5827 5827 5826 5824
5838 5838 5837 5837 5835 5834 5832 5832 5832 5830 5829 5827 5828 5830 5827 5824 5826 5830 5829 5828 5827 5827 5827 5827 5826 5826 5826 5826 5826 5825 5825 5825 5825 5825 5824 5823 5822 5821 5820 5819 5819 5819 5819
5831 5830 5830 5830 5829 5826 5825 5824 5824 5824 5821 5819 5820 5820 5820 5818 5815 5818 5821 5820 5820 5820 5818 5819 5819 5819 5819 5819 5819 5818 5818 5818 5818 5818 5817 5816 5815 5814 5813 5813 5812 5812 5811
5827 5823 5821 5820 5820 5819 5817 5817 5816 5816 5815 5812 5811 5810 5809 5808 5808 5806 5810 5811 5811 5810 5809 5810 5810 5810 5810 5811 5811 5811 5811 5811 5810 5810 5810 5810 5809 5808 5807 5805 5805 5804 5803
5816 5815 5814 5811 5808 5808 5807 5806 5804 5804 5804 5804 5803 5800 5800 5799 5798 5797 5798 5801 5801 5801 5800 5799 5798 5800 5801 5802 5803 5802 5802 5802 5802 5802 5802 5802 5801 5800 5799 5799 5798 5797 5796
5805 5804 5802 5801 5798 5796 5795 5794 5792 5791 5791 5790 5789 5788 5789 5789 5788 5787 5787 5789 5791 5791 5791 5789 5788 5790 5790 5791 5792 5792 5792 5791 5792 5793 5794 5793 5793 5793 5792 5792 5791 5790 5789
5797 5794 5791 5789 5788 5785 5783 5780 5779 5778 5776 5777 5775 5774 5773 5774 5776 5776 5777 5775 5778 5780 5780 5782 5780 5781 5779 5779 5780 5781 5782 5782 5782 5782 5783 5784 5784 5785 5784 5784 5784 5783 5782
5785 5783 5780 5777 5773 5771 5769 5766 5764 5762 5762 5761 5761 5759 5758 5759 5757 5763 5763 5763 5762 5765 5767 5769 5770 5770 5769 5768 5768 5769 5770 5771 5771 5770 5772 5773 5773 5773 5774 5775 5774 5774 5774
5771 5768 5764 5759 5756 5753 5752 5750 5748 5746 5744 5743 5742 5742 5740 5741 5741 5742 5745 5747 5746 5746 5750 5753 5756 5757 5757 5757 5756 5757 5757 5758 5758 5759 5759 5761 5761 5762 5762 5764 5764 5764 5765
5755 5750 5747 5744 5741 5738 5736 5733 5731 5728 5726 5726 5726 5723 5721 5720 5719 5722 5724 5727 5728 5728 5730 5732 5737 5740 5743 5744 5743 5742 5743 5743 5746 5746 5746 5747 5748 5750 5752 5752 5754 5755 5755
5740 5737 5733 5730 5725 5722 5719 5718 5715 5711 5708 5706 5705 5703 5703 5699 5698 5701 5702 5705 5707 5708 5709 5712 5716 5719 5723 5728 5727 5728 5727 5728 5732 5732 5733 5732 5735 5736 5739 5738 5740 5741 5742
5722 5716 5711 5709 5706 5702 5699 5696 5693 5690 5688 5687 5687 5686 5685 5685 5684 5679 5680 5682 5685 5689 5688 5690 5693 5700 5704 5709 5710 5711 5709 5712 5716 5717 5718 5721 5720 5724 5724 5726 5725 5726 5728
5696 5693 5689 5686 5682 5679 5675 5673 5670 5666 5663 5663 5662 5662 5661 5661 5661 5660 5659 5659 5658 5665 5669 5671 5671 5676 5683 5688 5691 5693 5696 5699 5702 5703 5705 5707 5706 5709 5711 5712 5712 5712 5714
5678 5674 5668 5664 5660 5656 5651 5646 5642 5638 5634 5634 5635 5635 5637 5637 5637 5636 5637 5635 5636 5638 5645 5652 5651 5656 5659 5664 5671 5676 5680 5683 5687 5689 5691 5693 5693 5694 5697 5697 5696 5695 5695
5658 5653 5646 5640 5633 5628 5622 5613 5607 5603 5601 5601 5600 5602 5604 5606 5608 5609 5610 5611 5611 5611 5617 5626 5631 5636 5637 5642 5648 5653 5661 5666 5670 5673 5674 5677 5678 5681 5682 5683 5681 5679 5679
5632 5625 5616 5608 5602 5595 5590 5587 5581 5578 5573 5566 5565 5566 5568 5569 5573 5575 5578 5580 5583 5586 5589 5597 5602 5611 5614 5621 5626 5628 5637 5645 5652 5657 5657 5660 5663 5665 5666 5668 5667 5665 5665
5604 5594 5585 5577 5573 5568 5566 5564 5560 5554 5550 5545 5544 5542 5545 5544 5548 5552 5552 5554 5556 5559 5562 5572 5572 5581 5588 5597 5603 5607 5613 5621 5628 5636 5639 5642 5645 5647 5649 5651 5652 5650 5651
5574 5565 5556 5550 5545 5545 5545 5539 5531 5524 5527 5527 5525 5525 5524 5524 5528 5530 5531 5531 5532 5536 5537 5545 5547 5550 5559 5573 5579 5586 5591 5597 5606 5613 5617 5623 5625 5627 5630 5633 5635 5636 5635
5548 5544 5538 5534 5530 5528 5525 5523 5512 5513 5514 5512 5511 5510 5509 5510 5513 5513 5514 5514 5514 5516 5519 5522 5525 5527 5533 5542 5555 5563 5569 5577 5584 5589 5596 5601 5604 5607 5610 5613 5615 5618 5620
5534 5531 5525 5520 5515 5511 5507 5503 5495 5496 5498 5498 5496 5496 5496 5497 5498 5498 5498 5497 5496 5496 5500 5502 5505 5506 5510 5521 5530 5539 5546 5558 5565 5570 5575 5579 5583 5586 5590 5595 5598 5597 5603
5517 5512 5508 5504 5500 5495 5490 5485 5480 5480 5479 5482 5482 5480 5481 5483 5483 5484 5483 5481 5480 5480 5480 5482 5484 5488 5491 5501 5512 5521 5527 5536 5541 5548 5552 5556 5562 5567 5573 5577 5580 5581 5584
5498 5493 5491 5486 5482 5478 5473 5469 5464 5461 5462 5465 5468 5469 5469 5472 5474 5475 5471 5467 5466 5465 5462 5463 5466 5468 5473 5484 5493 5499 5508 5516 5523 5531 5534 5538 5543 5547 5553 5558 5562 5561 5565
5481 5475 5470 5468 5465 5463 5459 5454 5449 5448 5450 5451 5453 5455 5458 5461 5463 5463 5459 5456 5454 5451 5449 5448 5449 5452 5458 5467 5478 5485 5490 5499 5505 5513 5518 5520 5525 5531 5534 5538 5540 5540 5544
5464 5457 5452 5450 5450 5449 5446 5442 5440 5436 5436 5437 5437 5441 5445 5449 5452 5452 5448 5444 5443 5442 5440 5439 5438 5441 5445 5451 5461 5468 5473 5480 5488 5496 5500 5505 5510 5514 5517 5518 5523 5524 5528
5449 5441 5438 5438 5437 5438 5433 5430 5428 5426 5425 5423 5424 5428 5433 5437 5441 5443 5438 5435 5434 5434 5432 5430 5431 5431 5434 5438 5444 5451 5458 5467 5472 5478 5484 5489 5494 5499 5500 5504 5507 5511 5515
5439 5434 5432 5429 5427 5426 5421 5418 5415 5414 5414 5412 5410 5414 5420 5423 5429 5433 5429 5428 5426 5428 5427 5425 5423 5422 5423 5427 5432 5438 5444 5452 5457 5462 5470 5477 5480 5485 5490 5495 5499 5502 5505